QPF
0.01 0.01 0.01 0.01 0.02 0.03 0.03 0.03 0.03 0.03 0.03 0.03 0.04 0.03 0.02 0.03 0.02 0.02 0.02 0.02 0.02 0.01 0.01 0.01 0.01 0.01 0.01 0.01 0.01 0.01 0.01 0.01 0.01 0.01 0.01 0.02 0.02 0.02
0.01 0.01 0.01 0.00 0.01 0.01 0.02 0.02 0.02 0.02 0.02 0.03 0.03 0.03 0.03 0.03 0.03 0.02 0.02 0.02 0.01 0.01 0.01 0.01 0.00 0.01 0.01 0.02 0.01 0.02 0.02 0.01 0.01 0.01 0.01 0.01 0.02 0.02
0.02 0.02 0.01 0.01 0.01 0.01 0.02 0.02 0.02 0.02 0.03 0.02 0.02 0.03 0.02 0.02 0.02 0.02 0.02 0.02 0.01 0.02 0.01 0.01 0.01 0.01 0.01 0.02 0.03 0.03 0.03 0.02 0.01 0.01 0.02 0.02 0.02 0.05
0.03 0.02 0.02 0.02 0.01 0.01 0.01 0.01 0.02 0.03 0.03 0.03 0.02 0.02 0.02 0.02 0.02 0.01 0.01 0.01 0.01 0.02 0.02 0.02 0.02 0.01 0.02 0.02 0.02 0.02 0.02 0.02 0.02 0.02 0.03 0.04 0.04 0.06
0.04 0.02 0.02 0.02 0.02 0.01 0.01 0.01 0.01 0.03 0.03 0.03 0.03 0.02 0.02 0.02 0.02 0.01 0.00 0.00 0.01 0.01 0.01 0.01 0.02 0.03 0.02 0.02 0.02 0.02 0.02 0.02 0.03 0.04 0.05 0.06 0.07 0.05
0.03 0.03 0.02 0.02 0.02 0.03 0.03 0.02 0.02 0.02 0.04 0.05 0.04 0.03 0.02 0.01 0.01 0.01 0.01 0.00 0.00 0.01 0.01 0.01 0.01 0.02 0.02 0.01 0.02 0.02 0.02 0.03 0.03 0.04 0.06 0.06 0.09 0.07
0.01 0.02 0.02 0.02 0.02 0.03 0.03 0.04 0.03 0.03 0.03 0.05 0.06 0.04 0.02 0.01 0.01 0.01 0.01 0.00 0.00 0.00 0.00 0.01 0.01 0.01 0.01 0.01 0.01 0.01 0.02 0.03 0.03 0.02 0.04 0.04 0.05 0.07
0.01 0.01 0.01 0.01 0.01 0.01 0.02 0.03 0.03 0.03 0.02 0.03 0.04 0.05 0.03 0.02 0.01 0.01 0.01 0.00 0.00 0.00 0.00 0.01 0.01 0.01 0.00 0.00 0.00 0.01 0.01 0.01 0.01 0.01 0.02 0.03 0.03 0.04
0.02 0.01 0.01 0.00 0.00 0.01 0.02 0.01 0.01 0.02 0.02 0.02 0.02 0.03 0.04 0.04 0.02 0.01 0.01 0.01 0.01 0.01 0.01 0.01 0.01 0.01 0.01 0.01 0.01 0.00 0.01 0.01 0.01 0.01 0.02 0.03 0.03 0.02
0.02 0.02 0.01 0.01 0.01 0.02 0.02 0.01 0.01 0.01 0.01 0.01 0.01 0.02 0.03 0.04 0.05 0.03 0.02 0.02 0.01 0.01 0.01 0.01 0.02 0.02 0.01 0.01 0.01 0.01 0.00 0.01 0.01 0.02 0.02 0.03 0.03 0.03
0.02 0.02 0.02 0.02 0.02 0.02 0.01 0.01 0.01 0.01 0.01 0.01 0.01 0.01 0.02 0.03 0.05 0.05 0.04 0.03 0.02 0.01 0.01 0.01 0.01 0.01 0.01 0.01 0.02 0.01 0.00 0.00 0.01 0.01 0.02 0.03 0.02 0.03
0.01 0.02 0.02 0.02 0.03 0.03 0.02 0.01 0.01 0.01 0.02 0.02 0.01 0.01 0.01 0.02 0.03 0.04 0.04 0.04 0.03 0.02 0.01 0.01 0.01 0.02 0.02 0.02 0.02 0.01 0.01 0.00 0.01 0.01 0.01 0.02 0.02 0.02
0.01 0.01 0.01 0.01 0.02 0.03 0.03 0.02 0.02 0.02 0.02 0.02 0.02 0.01 0.01 0.01 0.02 0.02 0.03 0.03 0.03 0.02 0.02 0.02 0.02 0.02 0.01 0.02 0.02 0.01 0.01 0.01 0.01 0.01 0.01 0.01 0.02 0.02
0.02 0.02 0.02 0.02 0.03 0.03 0.04 0.02 0.03 0.03 0.03 0.03 0.02 0.02 0.01 0.01 0.02 0.02 0.02 0.02 0.03 0.03 0.03 0.03 0.02 0.02 0.02 0.01 0.01 0.01 0.01 0.01 0.01 0.01 0.01 0.01 0.01 0.01
0.02 0.02 0.02 0.03 0.02 0.02 0.03 0.02 0.02 0.02 0.02 0.02 0.02 0.02 0.02 0.02 0.02 0.02 0.02 0.02 0.02 0.02 0.03 0.03 0.03 0.03 0.02 0.01 0.01 0.01 0.01 0.01 0.01 0.01 0.01 0.01 0.01 0.01
0.02 0.03 0.03 0.02 0.01 0.02 0.03 0.02 0.01 0.01 0.01 0.02 0.02 0.02 0.02 0.02 0.02 0.03 0.03 0.03 0.03 0.03 0.02 0.02 0.02 0.02 0.03 0.02 0.02 0.01 0.01 0.01 0.01 0.01 0.02 0.01 0.01 0.01
0.02 0.03 0.03 0.03 0.02 0.02 0.02 0.02 0.01 0.01 0.01 0.01 0.01 0.01 0.01 0.01 0.01 0.01 0.02 0.02 0.02 0.03 0.02 0.01 0.01 0.02 0.02 0.03 0.03 0.02 0.02 0.02 0.02 0.02 0.03 0.02 0.01 0.01
0.04 0.03 0.04 0.04 0.04 0.03 0.03 0.02 0.02 0.01 0.01 0.01 0.01 0.01 0.01 0.01 0.01 0.01 0.01 0.02 0.02 0.02 0.02 0.02 0.01 0.01 0.01 0.02 0.02 0.03 0.03 0.03 0.02 0.03 0.03 0.02 0.01 0.01
0.03 0.04 0.04 0.03 0.03 0.03 0.02 0.02 0.02 0.01 0.01 0.01 0.01 0.01 0.01 0.01 0.01 0.01 0.01 0.01 0.02 0.02 0.03 0.03 0.02 0.01 0.01 0.02 0.01 0.02 0.03 0.03 0.03 0.03 0.03 0.02 0.01 0.01
0.03 0.04 0.04 0.04 0.04 0.03 0.02 0.02 0.02 0.01 0.01 0.01 0.01 0.01 0.01 0.01 0.01 0.01 0.01 0.01 0.02 0.02 0.03 0.03 0.03 0.02 0.01 0.01 0.02 0.02 0.03 0.04 0.03 0.03 0.02 0.01 0.01 0.02
0.02 0.03 0.04 0.04 0.04 0.04 0.04 0.03 0.03 0.02 0.02 0.02 0.02 0.02 0.02 0.02 0.02 0.02 0.01 0.02 0.02 0.02 0.03 0.03 0.02 0.01 0.01 0.01 0.01 0.01 0.02 0.04 0.04 0.03 0.03 0.02 0.02 0.01
0.01 0.02 0.03 0.04 0.04 0.04 0.04 0.04 0.04 0.03 0.03 0.02 0.02 0.02 0.03 0.03 0.02 0.02 0.02 0.02 0.02 0.02 0.02 0.03 0.03 0.04 0.04 0.03 0.02 0.01 0.02 0.02 0.03 0.03 0.03 0.03 0.03 0.02
0.02 0.02 0.02 0.03 0.03 0.03 0.03 0.04 0.04 0.04 0.03 0.03 0.03 0.03 0.03 0.03 0.03 0.02 0.02 0.02 0.02 0.02 0.02 0.03 0.04 0.05 0.05 0.04 0.02 0.02 0.02 0.02 0.02 0.03 0.03 0.03 0.04 0.03
MSLP
1018.53 1018.93 1019.38 1019.86 1020.38 1020.93 1021.51 1022.12 1022.73 1023.35 1023.94 1024.48 1024.95 1025.31 1025.57 1025.72 1025.77 1025.75 1025.70 1025.66 1025.65 1025.72 1025.86 1026.07 1026.35 1026.65 1026.96 1027.25 1027.50 1027.70 1027.86 1027.98 1028.07 1028.15 1028.21 1028.27 1028.32 1028.35
1018.59 1018.99 1019.43 1019.89 1020.39 1020.93 1021.51 1022.12 1022.77 1023.44 1024.10 1024.72 1025.28 1025.74 1026.08 1026.31 1026.43 1026.46 1026.44 1026.40 1026.40 1026.44 1026.54 1026.72 1026.94 1027.20 1027.47 1027.72 1027.94 1028.13 1028.28 1028.39 1028.49 1028.57 1028.64 1028.69 1028.73 1028.74
1018.59 1019.00 1019.44 1019.91 1020.41 1020.95 1021.53 1022.16 1022.82 1023.52 1024.23 1024.91 1025.54 1026.07 1026.50 1026.80 1027.00 1027.09 1027.11 1027.11 1027.11 1027.14 1027.22 1027.35 1027.53 1027.74 1027.96 1028.16 1028.35 1028.51 1028.64 1028.76 1028.85 1028.94 1029.02 1029.07 1029.10 1029.08
1018.52 1018.96 1019.43 1019.92 1020.43 1020.98 1021.57 1022.20 1022.87 1023.58 1024.31 1025.02 1025.69 1026.29 1026.78 1027.16 1027.42 1027.59 1027.67 1027.71 1027.73 1027.76 1027.83 1027.93 1028.06 1028.21 1028.37 1028.53 1028.68 1028.80 1028.92 1029.03 1029.12 1029.22 1029.29 1029.35 1029.36 1029.33
1018.40 1018.88 1019.38 1019.90 1020.44 1021.00 1021.59 1022.22 1022.88 1023.58 1024.30 1025.02 1025.71 1026.33 1026.88 1027.32 1027.65 1027.88 1028.04 1028.13 1028.19 1028.24 1028.30 1028.37 1028.46 1028.57 1028.67 1028.78 1028.88 1028.97 1029.06 1029.15 1029.25 1029.34 1029.41 1029.46 1029.47 1029.41
1018.21 1018.73 1019.27 1019.82 1020.39 1020.96 1021.54 1022.15 1022.79 1023.46 1024.15 1024.84 1025.52 1026.16 1026.73 1027.22 1027.62 1027.93 1028.16 1028.31 1028.42 1028.50 1028.57 1028.63 1028.69 1028.75 1028.81 1028.86 1028.92 1028.97 1029.03 1029.10 1029.18 1029.26 1029.33 1029.37 1029.37 1029.30
1017.95 1018.50 1019.07 1019.65 1020.23 1020.80 1021.37 1021.95 1022.54 1023.16 1023.80 1024.45 1025.11 1025.74 1026.33 1026.87 1027.33 1027.70 1028.00 1028.23 1028.40 1028.52 1028.60 1028.66 1028.70 1028.73 1028.75 1028.76 1028.77 1028.78 1028.81 1028.85 1028.91 1028.97 1029.03 1029.06 1029.05 1028.98
1017.60 1018.16 1018.75 1019.34 1019.92 1020.48 1021.03 1021.56 1022.10 1022.66 1023.24 1023.85 1024.47 1025.09 1025.70 1026.27 1026.78 1027.22 1027.60 1027.89 1028.12 1028.28 1028.40 1028.47 1028.50 1028.51 1028.49 1028.47 1028.44 1028.42 1028.42 1028.43 1028.45 1028.49 1028.53 1028.55 1028.54 1028.48
1017.15 1017.72 1018.31 1018.90 1019.48 1020.01 1020.52 1021.02 1021.50 1022.00 1022.53 1023.08 1023.67 1024.28 1024.90 1025.49 1026.05 1026.56 1027.00 1027.36 1027.64 1027.85 1028.00 1028.08 1028.12 1028.12 1028.08 1028.04 1027.98 1027.93 1027.89 1027.87 1027.86 1027.88 1027.89 1027.90 1027.89 1027.84
1016.62 1017.19 1017.78 1018.37 1018.92 1019.44 1019.92 1020.37 1020.81 1021.26 1021.73 1022.25 1022.81 1023.41 1024.03 1024.65 1025.25 1025.81 1026.30 1026.72 1027.05 1027.30 1027.47 1027.57 1027.62 1027.61 1027.57 1027.51 1027.44 1027.36 1027.30 1027.25 1027.22 1027.20 1027.20 1027.20 1027.18 1027.15
1016.06 1016.64 1017.22 1017.80 1018.35 1018.84 1019.30 1019.72 1020.12 1020.54 1020.99 1021.48 1022.02 1022.61 1023.24 1023.87 1024.49 1025.08 1025.60 1026.06 1026.42 1026.70 1026.89 1027.01 1027.07 1027.07 1027.03 1026.96 1026.88 1026.80 1026.72 1026.65 1026.59 1026.56 1026.53 1026.51 1026.49 1026.47
1015.53 1016.11 1016.71 1017.28 1017.83 1018.32 1018.76 1019.17 1019.56 1019.96 1020.40 1020.87 1021.41 1021.99 1022.61 1023.24 1023.87 1024.46 1025.00 1025.46 1025.84 1026.13 1026.34 1026.47 1026.54 1026.55 1026.52 1026.46 1026.38 1026.29 1026.20 1026.11 1026.04 1025.98 1025.94 1025.91 1025.88 1025.86
1015.07 1015.68 1016.29 1016.88 1017.43 1017.93 1018.39 1018.80 1019.20 1019.60 1020.03 1020.50 1021.03 1021.60 1022.20 1022.82 1023.43 1024.00 1024.52 1024.97 1025.34 1025.63 1025.84 1025.98 1026.05 1026.08 1026.06 1026.01 1025.94 1025.85 1025.76 1025.67 1025.58 1025.50 1025.44 1025.39 1025.35 1025.32
1014.72 1015.35 1015.99 1016.61 1017.18 1017.71 1018.18 1018.62 1019.04 1019.46 1019.89 1020.37 1020.88 1021.43 1022.00 1022.59 1023.15 1023.69 1024.17 1024.59 1024.93 1025.20 1025.40 1025.54 1025.62 1025.66 1025.66 1025.62 1025.56 1025.48 1025.39 1025.28 1025.18 1025.09 1025.01 1024.94 1024.89 1024.84
1014.44 1015.11 1015.78 1016.43 1017.04 1017.60 1018.11 1018.58 1019.03 1019.47 1019.92 1020.39 1020.89 1021.41 1021.94 1022.47 1022.99 1023.46 1023.89 1024.25 1024.56 1024.80 1024.99 1025.12 1025.21 1025.26 1025.27 1025.25 1025.20 1025.12 1025.03 1024.92 1024.80 1024.69 1024.59 1024.50 1024.42 1024.36
1014.18 1014.89 1015.59 1016.27 1016.92 1017.51 1018.06 1018.57 1019.05 1019.52 1019.99 1020.46 1020.94 1021.42 1021.91 1022.38 1022.82 1023.23 1023.59 1023.90 1024.16 1024.38 1024.55 1024.68 1024.77 1024.83 1024.86 1024.84 1024.80 1024.72 1024.62 1024.50 1024.37 1024.23 1024.11 1024.00 1023.90 1023.81
1013.88 1014.61 1015.33 1016.03 1016.70 1017.32 1017.90 1018.45 1018.97 1019.47 1019.95 1020.42 1020.88 1021.33 1021.76 1022.17 1022.55 1022.89 1023.19 1023.45 1023.68 1023.86 1024.02 1024.15 1024.25 1024.32 1024.35 1024.35 1024.30 1024.22 1024.10 1023.96 1023.81 1023.66 1023.51 1023.38 1023.26 1023.15
1013.47 1014.19 1014.90 1015.60 1016.27 1016.91 1017.52 1018.10 1018.65 1019.17 1019.67 1020.14 1020.59 1021.02 1021.41 1021.76 1022.08 1022.37 1022.62 1022.84 1023.04 1023.21 1023.37 1023.50 1023.61 1023.68 1023.72 1023.72 1023.66 1023.57 1023.44 1023.28 1023.10 1022.92 1022.76 1022.61 1022.48 1022.36
1012.89 1013.58 1014.27 1014.94 1015.60 1016.23 1016.85 1017.45 1018.02 1018.56 1019.08 1019.56 1020.01 1020.41 1020.78 1021.10 1021.38 1021.63 1021.85 1022.05 1022.23 1022.40 1022.56 1022.71 1022.82 1022.91 1022.95 1022.95 1022.88 1022.77 1022.62 1022.44 1022.24 1022.04 1021.86 1021.70 1021.56 1021.44
1012.17 1012.80 1013.43 1014.05 1014.67 1015.29 1015.90 1016.50 1017.08 1017.65 1018.18 1018.68 1019.13 1019.53 1019.88 1020.19 1020.45 1020.68 1020.89 1021.08 1021.27 1021.45 1021.62 1021.78 1021.92 1022.01 1022.06 1022.05 1021.98 1021.85 1021.68 1021.48 1021.27 1021.06 1020.87 1020.71 1020.57 1020.46
1011.33 1011.89 1012.44 1013.00 1013.57 1014.14 1014.73 1015.32 1015.92 1016.49 1017.04 1017.55 1018.01 1018.42 1018.78 1019.08 1019.35 1019.58 1019.79 1019.99 1020.19 1020.39 1020.58 1020.76 1020.90 1021.01 1021.06 1021.05 1020.98 1020.85 1020.67 1020.46 1020.24 1020.02 1019.84 1019.68 1019.56 1019.46
1010.42 1010.90 1011.38 1011.87 1012.37 1012.90 1013.45 1014.03 1014.61 1015.19 1015.75 1016.28 1016.76 1017.18 1017.55 1017.86 1018.13 1018.38 1018.60 1018.82 1019.04 1019.26 1019.47 1019.66 1019.83 1019.95 1020.01 1020.00 1019.93 1019.80 1019.62 1019.42 1019.20 1019.00 1018.83 1018.69 1018.58 1018.51
1009.49 1009.91 1010.31 1010.73 1011.17 1011.64 1012.16 1012.71 1013.28 1013.86 1014.43 1014.96 1015.45 1015.89 1016.27 1016.60 1016.89 1017.15 1017.39 1017.62 1017.86 1018.09 1018.32 1018.53 1018.71 1018.85 1018.92 1018.93 1018.87 1018.75 1018.59 1018.40 1018.21 1018.03 1017.88 1017.76 1017.68 1017.63
Thickness
5646 5645 5645 5645 5644 5643 5643 5642 5638 5634 5634 5636 5637 5638 5639 5639 5639 5639 5639 5639 5639 5639 5639 5639 5640 5640 5640 5640 5640 5640 5639 5639 5638 5638 5637 5637 5636 5635
5642 5641 5641 5640 5640 5639 5638 5637 5637 5635 5631 5632 5632 5633 5634 5634 5634 5634 5634 5634 5634 5634 5635 5635 5635 5635 5635 5635 5635 5634 5634 5634 5633 5632 5632 5631 5631 5630
5637 5637 5636 5636 5635 5634 5633 5632 5632 5631 5629 5628 5628 5628 5628 5629 5629 5629 5629 5629 5629 5629 5630 5630 5630 5630 5630 5630 5629 5629 5628 5628 5628 5627 5627 5626 5626 5626
5632 5632 5631 5632 5631 5630 5629 5628 5627 5627 5626 5624 5623 5623 5623 5623 5623 5623 5623 5623 5623 5624 5624 5625 5625 5625 5624 5624 5624 5623 5623 5623 5622 5622 5621 5621 5620 5620
5627 5627 5627 5626 5625 5624 5624 5623 5623 5623 5622 5621 5619 5618 5617 5618 5617 5618 5618 5618 5618 5619 5619 5619 5619 5619 5619 5619 5619 5618 5618 5617 5617 5616 5616 5615 5615 5614
5623 5623 5622 5622 5621 5620 5620 5619 5618 5617 5616 5616 5614 5613 5612 5612 5612 5612 5611 5612 5612 5613 5613 5614 5614 5614 5614 5613 5613 5613 5612 5612 5611 5611 5610 5610 5609 5608
5617 5617 5617 5618 5618 5617 5616 5614 5613 5612 5611 5610 5609 5608 5607 5607 5608 5607 5606 5606 5606 5607 5608 5608 5609 5609 5608 5608 5608 5608 5607 5607 5606 5605 5605 5604 5603 5603
5611 5611 5611 5612 5612 5612 5613 5612 5611 5609 5607 5606 5605 5604 5605 5605 5604 5604 5601 5600 5601 5603 5602 5603 5603 5603 5604 5603 5603 5603 5602 5601 5601 5600 5600 5599 5598 5597
5605 5605 5606 5606 5606 5605 5606 5606 5606 5606 5606 5604 5602 5602 5602 5603 5601 5599 5598 5598 5598 5598 5597 5597 5597 5598 5599 5599 5599 5598 5597 5597 5596 5596 5595 5594 5593 5592
5599 5600 5599 5600 5600 5600 5599 5598 5598 5599 5600 5600 5600 5601 5601 5600 5599 5598 5596 5593 5592 5592 5592 5591 5592 5593 5594 5594 5594 5594 5593 5592 5592 5591 5590 5589 5588 5587
5594 5594 5595 5595 5596 5595 5593 5592 5592 5592 5593 5594 5594 5594 5595 5594 5594 5591 5589 5588 5587 5587 5586 5586 5587 5587 5588 5589 5590 5589 5589 5588 5588 5587 5586 5585 5584 5582
5587 5588 5589 5590 5591 5590 5588 5587 5586 5586 5587 5587 5587 5587 5587 5587 5587 5587 5586 5584 5582 5582 5582 5580 5580 5580 5582 5584 5584 5584 5584 5584 5583 5582 5582 5581 5579 5577
5581 5581 5583 5584 5584 5584 5584 5583 5583 5582 5580 5580 5579 5579 5579 5580 5580 5580 5580 5580 5578 5578 5578 5575 5574 5574 5575 5576 5577 5578 5578 5578 5578 5577 5577 5576 5575 5573
5575 5576 5577 5577 5578 5577 5577 5577 5577 5575 5573 5572 5571 5571 5571 5572 5573 5573 5573 5573 5573 5573 5573 5571 5569 5569 5568 5569 5570 5572 5572 5572 5572 5572 5572 5571 5570 5569
5570 5570 5570 5570 5570 5569 5569 5569 5568 5566 5565 5564 5564 5564 5565 5565 5565 5565 5565 5565 5565 5565 5565 5565 5565 5564 5564 5564 5565 5565 5565 5566 5567 5567 5566 5566 5565 5564
5562 5562 5562 5562 5561 5561 5561 5560 5560 5559 5559 5558 5558 5557 5556 5556 5556 5557 5557 5557 5557 5557 5557 5558 5558 5558 5558 5558 5559 5560 5560 5560 5562 5561 5561 5561 5560 5560
5553 5553 5552 5551 5551 5551 5551 5551 5551 5550 5550 5550 5549 5548 5548 5548 5548 5548 5549 5549 5549 5550 5550 5549 5549 5550 5552 5552 5552 5554 5554 5555 5556 5555 5554 5555 5556 5556
5544 5543 5543 5543 5543 5543 5543 5542 5542 5543 5543 5543 5542 5541 5541 5541 5541 5540 5540 5541 5543 5544 5543 5543 5541 5541 5543 5545 5548 5549 5549 5549 5550 5549 5549 5549 5552 5553
5534 5534 5534 5534 5534 5535 5535 5534 5535 5535 5535 5535 5535 5535 5534 5535 5534 5534 5533 5534 5535 5536 5536 5535 5535 5535 5537 5541 5543 5543 5543 5543 5543 5543 5544 5545 5547 5549
5525 5525 5526 5526 5526 5526 5527 5527 5527 5527 5527 5527 5527 5527 5527 5527 5527 5527 5527 5527 5528 5529 5529 5529 5529 5530 5533 5535 5535 5536 5536 5536 5536 5538 5538 5539 5540 5542
5516 5516 5517 5517 5517 5518 5518 5519 5520 5520 5520 5520 5520 5520 5520 5520 5520 5520 5520 5521 5521 5521 5523 5524 5525 5525 5524 5524 5526 5529 5529 5529 5531 5531 5532 5532 5533 5535
5507 5507 5507 5508 5509 5509 5510 5510 5511 5512 5512 5512 5512 5512 5512 5512 5513 5514 5514 5514 5514 5516 5517 5517 5516 5516 5516 5518 5521 5522 5522 5522 5523 5524 5525 5528 5528 5530
5498 5498 5499 5499 5500 5500 5501 5502 5503 5504 5504 5504 5504 5505 5505 5505 5506 5507 5507 5507 5507 5508 5508 5508 5508 5509 5510 5511 5512 5514 5514 5515 5516 5517 5519 5521 5523 5524